#timestamp,LO_Frequency,Hit,StdDev 
1503680415.2,286047000.0,N,0.6
1503680435.9,286047000.6,N,0.6
1503680455.7,286047001.1,N,0.6
1503680475.6,286046998.6,N,0.9
1503680495.4,286047000.5,N,0.8
1503680515.3,286047001.0,N,0.8
1503680535.1,286047000.5,N,0.8
1503680536.0,286047000.5,N,0.7
1503680555.8,286047000.0,N,0.7
1503680575.7,286047000.4,N,0.7
1503680595.5,286047000.5,N,0.7
1503680615.3,286047000.6,N,0.6
1503680635.2,286047000.5,N,0.6
1503680655.0,286047000.1,N,0.6
1503680655.9,286047000.1,N,0.6
1503680675.8,286046999.9,N,0.6
1503680695.6,286047000.1,N,0.6
1503680715.4,286047002.4,Y,0.0
1503680735.3,286047000.0,P,0.2
1503680755.1,286047000.5,N,0.2
1503680775.9,286047000.6,N,0.2
1503680795.7,286047000.3,N,0.2
1503680815.5,286047000.3,N,0.2
1503680835.4,286047000.4,N,0.2
1503680855.2,286047000.4,N,0.2
1503680875.1,286047000.5,N,0.2
1503680876.0,286047000.5,N,0.2
1503680895.8,286047000.4,N,0.2
1503680915.6,286047000.0,N,0.2
1503680935.5,286047000.0,N,0.2
1503680955.3,286047000.2,N,0.2
1503680975.1,286046999.9,N,0.2
1503680995.9,286046999.8,N,0.2
1503681015.7,286047000.2,N,0.2
1503681035.6,286047002.3,Y,0.0
1503681055.4,286047002.8,P,1.3
1503681075.2,286047002.3,N,1.1
1503681095.1,286047002.8,N,1.0
1503681096.0,286047002.8,N,1.0
1503681115.8,286046999.7,N,1.3
1503681135.7,286046999.8,N,1.4
1503681155.5,286047000.1,N,1.4
1503681175.3,286046999.8,N,1.4
1503681195.2,286047000.2,N,1.3
1503681215.0,286047002.7,N,1.4
1503681215.9,286047002.7,N,1.4
1503681235.8,286047002.8,N,1.4
1503681255.6,286047002.6,N,1.4
1503681275.4,286047002.6,N,1.3
1503681295.3,286047002.3,N,1.3
1503681315.1,286047002.8,N,1.3
1503681335.8,286047002.2,N,1.3
1503681355.7,286047002.2,N,1.2
1503681375.5,286047000.1,N,1.3
1503681395.4,286047002.8,N,1.2
1503681415.2,286047002.0,N,1.2
1503681435.0,286047001.9,N,1.2
1503681435.9,286047001.9,N,1.2
1503681455.8,286047002.8,N,1.2
1503681475.6,286047001.9,N,1.1
1503681495.5,286047002.5,N,1.1
1503681515.3,286047002.7,N,1.1
1503681535.1,286047001.6,N,1.1
1503681555.9,286047002.0,N,1.1
1503681575.8,286047002.4,N,1.0
1503681595.7,286047002.6,N,1.0
1503681615.5,286047001.7,N,1.0
1503681635.3,286047002.5,N,1.0
1503681655.2,286047002.1,N,1.0
1503681675.0,286047002.5,N,0.9
1503681675.9,286047002.5,N,0.9
1503681695.8,286047004.4,Y,0.0
1503681715.6,286047000.6,P,0.7
1503681735.4,286047000.1,N,0.8
1503681755.3,286047000.7,N,0.7
1503681775.1,286047000.6,N,0.7
1503681795.9,286047000.5,N,0.6
1503681815.7,286047000.3,N,0.6
1503681835.5,286046999.9,N,0.6
1503681855.4,286047002.8,Y,0.0
1503681875.2,286047000.5,P,0.0
1503681895.0,286047000.1,N,0.2
1503681895.9,286047000.1,N,0.2
1503681915.8,286047000.0,N,0.2
1503681935.6,286047000.9,Y,0.0
1503681955.5,286047000.7,P,0.2
1503681975.3,286047001.0,P,0.3
1503681995.1,286047000.5,N,0.3
1503682015.9,286046998.2,Y,0.0
1503682035.7,286046998.5,P,1.1
1503682055.6,286046998.9,N,0.9
1503682075.4,286046999.3,N,0.8
1503682095.2,286046998.3,N,0.8
1503682115.1,286046999.0,N,0.8
1503682116.0,286046999.0,N,0.7
1503682135.8,286046998.8,N,0.7
1503682155.7,286046998.9,N,0.6
1503682175.5,286046998.7,N,0.6
1503682195.3,286046998.8,N,0.6
1503682215.2,286046998.5,N,0.6
1503682235.0,286046999.3,N,0.6
1503682235.9,286046999.3,N,0.5
1503682255.8,286046999.0,N,0.5
1503682275.6,286046998.4,Y,0.0
1503682295.4,286047000.5,P,0.8
1503682315.3,286046998.9,N,0.7
1503682335.1,286046998.6,N,0.7
1503682355.9,286046998.6,N,0.7
1503682375.7,286046999.5,N,0.7
1503682395.5,286046999.0,N,0.6
1503682415.4,286046999.2,N,0.6
1503682435.2,286046997.5,Y,0.0
1503682455.1,286046997.4,P,0.9
1503682456.0,286046997.4,N,0.8
1503682475.8,286046995.0,P,1.5
1503682495.6,286046997.8,N,1.3
1503682515.5,286046994.9,Y,0.0
1503682535.3,286046999.0,P,0.8
1503682555.2,286046998.9,N,0.8
1503682575.9,286046999.3,N,0.8
1503682595.7,286046999.6,N,0.8
1503682615.6,286046999.5,N,0.8
1503682635.4,286046998.7,N,0.7
1503682655.3,286046999.4,N,0.7
1503682675.1,286046999.4,N,0.7
1503682676.0,286046999.4,N,0.6
1503682695.8,286046998.7,N,0.6
1503682715.7,286046998.9,N,0.6
1503682735.5,286046999.0,N,0.6
1503682755.3,286046999.4,N,0.5
1503682775.2,286046999.5,N,0.5
1503682795.0,286046999.6,N,0.5
1503682795.9,286046999.6,N,0.5
1503682815.8,286046997.2,Y,0.0
1503682835.6,286046997.3,P,0.9
1503682855.4,286046997.4,N,0.8
1503682875.3,286046997.2,P,0.8
1503682895.1,286046996.8,Y,0.0
1503682915.9,286046998.7,P,0.5
1503682935.7,286046998.1,P,0.4
1503682955.5,286046999.2,N,0.6
1503682975.4,286046997.0,Y,0.0
1503682995.2,286046998.6,P,0.1
1503683015.1,286047001.2,P,1.3
1503683016.0,286047001.2,N,1.3
1503683035.8,286047001.1,N,1.3
1503683055.6,286046998.4,N,1.3
1503683075.5,286046998.5,N,1.3
1503683095.3,286046999.0,N,1.3
1503683115.2,286046999.2,N,1.2
1503683135.9,286047000.8,N,1.2
1503683155.7,286046998.5,N,1.2
1503683175.6,286046997.2,N,1.3
1503683195.4,286046997.0,N,1.4
1503683215.2,286046999.0,N,1.4
1503683235.1,286046996.7,N,1.4
1503683236.0,286046996.7,N,1.5
1503683255.8,286046997.8,N,1.5
1503683275.7,286046997.9,N,1.5
1503683295.5,286046997.2,N,1.5
1503683315.3,286046996.8,N,1.5
1503683335.2,286046999.2,N,1.4
1503683355.0,286046996.6,N,1.5
1503683355.9,286046996.6,N,1.5
1503683375.8,286046999.2,N,1.5
1503683395.6,286046996.5,N,1.5
1503683415.4,286046999.5,N,1.5
1503683435.3,286046997.1,N,1.5
1503683455.1,286046999.5,N,1.5
1503683475.8,286046996.5,N,1.5
1503683495.7,286046997.0,N,1.5
1503683515.5,286046996.9,N,1.5
1503683535.4,286046997.4,N,1.5
1503683555.2,286046997.8,N,1.4
1503683575.0,286046997.2,N,1.3
1503683575.9,286046997.2,N,1.1
1503683595.8,286046995.4,Y,0.0
1503683615.6,286046999.5,P,0.8
1503683635.5,286046998.3,N,0.7
1503683655.3,286046998.7,N,0.6
1503683675.1,286046999.1,N,0.6
1503683695.9,286046998.9,N,0.5
1503683715.7,286046999.0,N,0.5
1503683735.5,286046999.1,N,0.5
1503683755.4,286046996.5,Y,0.0
1503683775.2,286046998.1,P,0.4
1503683795.1,286047001.1,P,1.3
1503683796.0,286047001.1,N,1.3
1503683815.8,286047000.6,N,1.2
1503683835.6,286047001.0,N,1.2
1503683855.5,286047000.5,N,1.1
1503683875.3,286047000.5,N,1.1
1503683895.2,286046999.9,N,1.0
1503683915.0,286047000.2,N,1.0
1503683915.9,286047000.2,N,0.9
1503683935.7,286047000.9,N,0.9
1503683955.6,286047000.9,N,0.9
1503683975.4,286047000.9,N,0.9
1503683995.3,286047000.1,N,0.8
